Location: Nied?wied?
(53.3665°N, 14.8184°E)
Time: 18:38:14
(UTC+00:00)

ISS - Pass Details

Date: 14 May 2021
Orbit: 417 x 422 km, 51.6° (Epoch: 14 June)

Event Time Altitude Azimuth Distance (km) Brightness Sun altitude
Exits shadow 00:50:28 - 274° (W) 1,950 -0.6 -14.0°
Reaches altitude 10° 00:51:34 10° 271° (W) 1,509 -1.2 -13.9°
Maximum altitude 00:54:51 49° 196° (SSW) 550 -3.6 -13.6°
Drops below altitude 10° 00:58:08 10° 120° (ESE) 1,507 -0.9 -13.4°
Sets 01:00:16 0° 114° (ESE) 2,371 0.1 -13.2°
